Regional Weather Roundup
Issued by NWS Midland/Odessa, TX

Skip options and go directly to product.
Home | Oldest Version | Previous Version | Current Version | All | Graphics & Text | Save Text | Print | Product List | Glossary On

Skip product version selection by date and time.   
494
ASUS44 KMAF 281610
RWRMAF
MIDLAND AREA WEATHER ROUNDUP
NATIONAL WEATHER SERVICE MIDLAND TX
1100 AM CDT MON JUL 28 2014

...IN SOUTHWEST TEXAS AND SOUTHEAST NEW MEXICO...

CITY           SKY/WX    TMP DP  RH WIND       PRES   REMARKS
ALPINE         CLOUDY    78  62  57 NW3       30.35S
ANDREWS        FAIR      85  59  41 N7        30.27R
ARTESIA        CLOUDY    79  55  44 N23G30    30.28F
BIG SPRING     MOSUNNY   87  63  44 N3        30.26R
CARLSBAD       CLOUDY    84  55  36 N20       30.26S
DRYDEN           N/A     90  66  45 E10       30.16S
FORT STOCKTON  SUNNY     87  61  41 E12       30.21R
GUAD PASS      PTSUNNY   72  63  73 E9          N/A
HOBBS            N/A     84  57  39 N8G16     30.30S
MARFA          CLOUDY    64  61  88 N14       30.35F THUNDER
MIDLAND AIRPK  SUNNY     87  61  42 CALM      30.24S
MIDLAND INTL   SUNNY     86  63  45 VRB3      30.23S
ODESSA         SUNNY     86  60  41 VRB3      30.24S
PECOS          SUNNY     88  59  37 NE8       30.19S
PRESIDIO       FAIR      89  56  31 NE10      30.18R
SEMINOLE       MOSUNNY   82  59  45 NE12G17   30.30R
SNYDER         MOSUNNY   86  64  47 N10       30.24S
WINK           MOSUNNY   88  60  38 E6        30.20F
$$
...OTHER STATIONS IN TEXAS...

CITY           SKY/WX    TMP DP  RH WIND       PRES   REMARKS
ABILENE        MOSUNNY   90  67  46 W9        30.20R
AMARILLO       CLOUDY    64  63  96 E16       30.36S
AUSTIN         MOSUNNY   86  72  62 S10G18    30.13S
BROWNSVILLE    MOSUNNY   91  74  57 S10G18    30.09S HX 100
CORPUS CHRISTI PTSUNNY   91  74  57 S12       30.11R HX 100
DALLAS FTW     PTSUNNY   89  69  51 N12       30.14S
DEL RIO        MOSUNNY   85  71  63 SE12      30.12R
EL PASO        PTSUNNY   80  60  50 NE15      30.28S
HOUSTON INT    MOSUNNY   88  74  63 W13       30.13S
LUBBOCK        PTSUNNY   78  60  53 NE20G30   30.31S
SAN ANGELO     SUNNY     90  64  42 VRB3      30.18S
SAN ANTONIO    MOSUNNY   85  72  65 S13       30.15S
WACO           MOSUNNY   90  71  53 CALM      30.14R
WICHITA FALLS  NOT AVBL
$$
...OTHER LOCATIONS IN NEW MEXICO...

CITY           SKY/WX    TMP DP  RH WIND       PRES   REMARKS
ALAMAGORDO     CLOUDY    72  64  78 N15       30.31F
ALBUQUERQUE    CLOUDY    77  54  44 SE14      30.41R
CANNON AFB     MOSUNNY   74  59  58 E16       30.38F
CLOVIS         NOT AVBL
HOLLOMAN AFB   LGT RAIN  72  66  83 N9        30.30F
ROSWELL        CLOUDY    78  60  53 N13       30.30F
RUIDOSO        CLOUDY    59  54  82 W3        30.53F
SANTA FE       MOSUNNY   69  54  58 SE7       30.48F
TRUTH OR CONSE CLOUDY    74  57  55 NE6       30.36R
TUCUMCARI      MOSUNNY   73  59  61 SE9       30.38S
$$

USA.gov is the U.S. government's official web portal to all federal, state and local government web resources and services.